Flag for Norway Weather past 2 weeks in Drøbak, Norway

Now
54 °F

Partly sunny.


Feels Like: 52 °F
Forecast: 50 / 63 °F
Wind: 6 mph from North

Location: Oslo / Fornebu

Current Time: Aug 21, 2014 at 9:31:11 AM

Latest Report: Aug 21, 2014 at 8:50 AM


Visibility: N/A

Pressure: 29.71 "Hg

Humidity: 77%

Dew point: 46 °F

Location of DrøbakLocation

Historic Weather in Drøbak — Graph

°F

Drøbak temperature yesterday

Maximum temperature yesterday: 57 °F (at 3:20 PM)
Minimum temperature yesterday: 52 °F (at 3:20 AM)
Average temperature yesterday: 53 °F

Past Weeks' High & Low Weather Summary

 TemperatureHumidityPressure
High59 °F (Aug 12, 8:20 PM)100% (Aug 16, 4:50 PM)29.89 "Hg (Aug 16, 4:50 PM)
Low52 °F (Aug 16, 3:50 AM)59% (Aug 15, 9:50 AM)29.21 "Hg (Aug 12, 8:20 PM)
Average55 °F82%29.55 "Hg
* Reported Aug 6 8:20 AM — Aug 21 8:20 AM, Drøbak, Weather by CustomWeather, © 2014

Note: Actual official high and low records may vary slightly from our data, if they occured in-between our weather recording intervals... More about our weather records

Advertising

Drøbak weather history for previous 24 hours

 ConditionsComfort  
Time TempWeatherWind HumidityBarometerVisibility
8:20 AM
Aug 21
52 °FPartly sunny.7 mph82%29.68 "HgN/A
7:50 AM52 °FPartly sunny.7 mph82%29.68 "HgN/A
7:20 AM52 °FScattered clouds.7 mph82%29.68 "HgN/A
6:50 AM52 °FScattered clouds.8 mph82%29.68 "HgN/A
6:20 AM52 °FPassing clouds.9 mph82%29.68 "HgN/A
5:50 AM52 °FPassing clouds.7 mph77%29.68 "HgN/A
5:20 AM52 °FPassing clouds.10 mph77%29.68 "HgN/A
4:50 AM52 °FPassing clouds.N/A82%29.68 "HgN/A
4:20 AM52 °FPassing clouds.N/A77%29.71 "HgN/A
3:50 AM52 °FCool.N/A77%29.71 "HgN/A
3:20 AM52 °FCool.N/A82%29.71 "HgN/A
2:50 AM52 °FCool.N/A77%29.71 "HgN/A
2:20 AM52 °FCool.N/A82%29.71 "HgN/A
1:50 AM54 °FCool.N/A77%29.71 "HgN/A
1:20 AM52 °FCool.N/A82%29.71 "HgN/A
12:50 AM52 °FCool.N/A82%29.71 "HgN/A
12:20 AM52 °FCool.N/A82%29.71 "HgN/A
11:50 PM
Aug 20
52 °FCool.N/A82%29.71 "HgN/A
11:20 PM52 °FCool.N/A82%29.71 "HgN/A
10:50 PM52 °FLight rain. Overcast.N/A82%29.71 "Hg5 mi
10:20 PM52 °FCool.N/A77%29.71 "HgN/A
9:20 PM54 °FOvercast.16 mph77%29.71 "HgN/A
8:50 PM52 °FPartly sunny.18 mph77%29.71 "HgN/A
8:20 PM54 °FPassing clouds.17 mph77%29.71 "HgN/A
7:50 PM54 °FPartly sunny.17 mph77%29.71 "HgN/A
7:20 PM54 °FPartly sunny.16 mph77%29.71 "HgN/A
6:50 PM54 °FPassing clouds.16 mph77%29.71 "HgN/A
6:20 PM54 °FPassing clouds.16 mph77%29.71 "HgN/A
5:50 PM55 °FPassing clouds.18 mph72%29.71 "HgN/A
5:20 PM55 °FScattered clouds.18 mph67%29.71 "HgN/A
4:50 PM55 °FBroken clouds.18 mph72%29.71 "HgN/A
4:20 PM54 °FPartly sunny.17 mph72%29.71 "HgN/A
3:50 PM55 °FBroken clouds.21 mph72%29.71 "HgN/A
3:20 PM57 °FScattered clouds.17 mph67%29.71 "HgN/A
2:50 PM55 °FPassing clouds.18 mph72%29.71 "HgN/A
2:20 PM55 °FPassing clouds.20 mph72%29.71 "HgN/A
1:50 PM54 °FBroken clouds.21 mph77%29.71 "HgN/A
1:20 PM54 °FPassing clouds.22 mph67%29.71 "HgN/A
12:50 PM54 °FPassing clouds.22 mph77%29.71 "HgN/A
12:20 PM54 °FCool.23 mph72%29.68 "HgN/A
11:50 AM54 °FCool.24 mph72%29.68 "HgN/A
11:20 AM54 °FScattered clouds.24 mph77%29.68 "HgN/A
10:50 AM54 °FPassing clouds.28 mph72%29.68 "HgN/A
10:20 AM52 °FScattered clouds.28 mph82%29.68 "HgN/A
9:50 AM52 °FSprinkles. Partly sunny.28 mph82%29.68 "HgN/A
9:20 AM52 °FSprinkles. Partly sunny.26 mph82%29.68 "Hg5 mi
Weather by CustomWeather, © 2014

See weather overviewHow to use our weather pages